CZ-6A DEB, 54905

Orbit data source: Space-Track

CZ-6A DEB, 54905 is space debris in SSO originally from a launch on Fri, 11 Nov 2022 UTC launched from the Taiyaun Space Center, China (TSC). Debris objects in space refer to the collection of defunct objects orbiting the Earth. Examples of debris include non-operational satellites, rocket bodies, and fragments generated from explosions, collisions, or faulty payload assembly.

Loading next visibility...
Identifier
54905, 2022-151QS
Orbit
SSO
Country
Flag of CNCN / PRC
Related business
Manufacturer
SAST
Mission
Spacecraft
Bus & Motor
Unknown
Mass
Unknown
Launch date (UTC)
2022-11-11 (4 years ago)
Launch vehicle
Unknown
Launch site
Taiyaun Space Center, China (TSC)
Object type
Payload
Rocket body
Debris
Shape & HBR
Unknown shape, 0.1 m
Radar Cross Section
Small (<0.1 m²)

Expand to show TLE details & history
Last TLE update: 2 days ago

TLE from 2 days ago
0 CZ-6A DEB
1 54905U 22151QS  26171.15381835  .00001148  00000-0  31457-3 0  9992
2 54905  98.7112 236.3441 0079658 275.4496  83.7613 14.47366050186917
Epoch: 2026-06-20T03:41Z
TLE epoch observation values (Epoch: 2026-06-20T03:41:29.905Z)
Latitude
0.00001°
Longitude
-87.40303°
Altitude
731.505 km
Speed
7.492 km/s
True Right ascension
15h 45m 22s
True Declination
0° 00' 00"
Sunlit
Object was in full shadow at epoch
Visualization orbit readout
Latitude
Unknown
Longitude
Unknown
Altitude
Unknown
Speed
Unknown
Apparent Right ascension
Unknown
Apparent Declination
Unknown
Sunlit
N/A
Visualization observer readout
Local Sidereal Time
21:38:00
Azimuth
Unknown
Elevation
Unknown
Doppler factor
Unknown
Orbital elements
Apogee altitude
788.019 km
Perigee altitude
674.753 km
Semi-major axis
7,109.523 km
Eccentricity
0.00797
Inclination
98.7112°
RAAN
236.3441°
Arg. of periapsis
275.4496°
True anomaly
84.66965°
Mean anomaly
83.7613°
Eccentric anomaly
84.21538°
Mean motion
3.62062 °/min
Orbital period
99.43 mins
BSTAR
0.00031457
Loading maneuver chart data...
Computing Atmospheric mass density...
Loading historical data...
Loading historical data...
Loading historical data...
Loading historical data...
Loading historical data...
Loading historical data...
Loading historical data...

Documentation

Showing up to 5 results
|